GEFSNGP_500_meanwind_192.txt.gz
Wind_Speed
14 15 15 15 15 17 17 18 19 20 21 21 22 23 24 25 24 24 24 24 23 23 23 22 21 21 20 19 18 17 16 16 15 15 15 15 15 15 15 15 16 16 16 17
16 16 17 16 16 17 18 18 19 20 20 21 22 24 24 24 24 24 23 23 22 22 21 21 20 19 18 17 16 15 14 14 14 15 15 15 15 14 14 14 14 15 16 16
18 18 17 17 17 18 18 18 18 19 20 21 22 23 24 24 24 24 22 22 21 21 19 19 19 18 17 15 14 13 13 13 14 14 14 14 13 13 13 13 13 14 15 15
19 20 19 18 18 18 18 18 18 19 20 21 22 23 24 23 23 23 22 22 21 19 18 18 18 16 15 14 13 13 13 13 12 12 13 12 12 12 12 12 13 14 14 15
21 21 20 19 18 19 19 19 19 20 21 21 21 23 23 22 22 22 22 21 19 17 17 17 16 15 15 14 14 14 13 12 11 12 12 11 11 10 11 12 12 13 13 15
22 22 21 19 19 19 20 20 20 21 21 21 22 22 22 22 22 21 20 19 18 17 16 16 15 15 15 15 15 14 12 11 11 11 11 10 10 9 10 11 12 13 14 15
21 21 21 20 20 21 21 21 20 20 20 20 21 21 21 21 21 19 18 17 17 16 16 15 14 14 15 15 14 13 12 11 10 9 9 9 9 9 9 10 11 13 14 15
23 22 21 21 21 21 21 21 21 20 19 20 20 20 20 20 19 18 17 17 16 15 14 14 14 14 14 14 13 12 11 10 9 8 7 7 8 8 9 11 11 12 14 16
23 22 22 21 21 22 22 22 21 20 19 19 19 19 19 19 18 18 17 16 14 14 14 13 13 13 13 13 11 10 9 9 8 7 6 6 6 7 9 11 12 13 15 16
24 23 23 22 22 22 22 22 20 19 19 18 18 18 18 18 17 16 15 15 14 14 13 12 11 11 11 10 9 9 9 8 7 6 6 7 7 8 9 11 13 13 15 15
25 24 24 24 23 23 22 22 20 19 18 18 17 17 17 17 16 15 14 14 14 13 12 11 10 9 8 8 8 8 8 7 7 6 6 7 8 8 10 12 13 14 16 17
25 25 25 24 23 23 23 21 20 19 18 17 17 17 16 16 14 13 13 12 12 12 11 10 8 6 6 7 7 7 7 6 7 6 6 7 9 10 11 12 14 15 16 17
26 26 25 24 23 22 21 21 20 19 18 18 18 17 16 14 14 13 13 12 11 11 10 9 7 5 5 5 5 5 6 6 6 6 7 8 9 10 12 13 14 15 17 18
26 26 25 23 23 23 22 20 19 18 17 18 18 17 15 14 14 13 13 12 11 10 9 7 5 4 5 4 4 4 4 5 5 6 7 8 10 11 13 14 15 16 17 19
26 25 25 24 23 23 21 20 19 18 18 18 17 15 14 13 12 12 12 11 10 8 7 6 4 3 3 3 2 3 4 4 5 5 6 8 9 11 12 14 15 17 18 19
25 25 25 24 23 22 21 20 19 18 18 17 16 14 13 12 12 11 11 10 9 7 6 5 3 3 2 1 1 2 3 3 4 4 5 8 9 10 12 14 15 17 18 20
25 24 24 23 23 22 21 20 19 18 18 17 16 14 13 12 11 11 10 9 8 7 6 4 3 3 2 1 1 1 2 3 3 4 6 7 9 11 12 14 15 17 19 21
25 24 23 22 22 22 21 20 19 18 17 16 15 14 12 12 11 10 9 8 7 6 5 4 4 3 3 2 1 0 1 2 2 4 6 7 9 11 12 14 16 18 19 21
24 23 23 22 22 21 20 19 18 18 17 15 14 13 13 12 11 10 9 8 7 6 5 5 4 4 4 2 2 1 1 1 2 4 6 7 9 10 12 14 16 18 19 21
23 23 23 22 21 21 20 19 19 18 17 16 15 13 13 12 12 11 9 8 7 6 6 6 5 4 4 3 2 2 1 1 3 4 6 7 9 11 13 14 16 18 20 21
23 22 22 21 21 21 20 19 19 18 17 16 15 14 13 12 11 10 9 9 8 8 7 7 6 5 5 3 3 2 1 1 3 4 5 7 9 11 13 15 16 18 20 22
22 21 21 20 20 19 18 18 18 17 17 15 14 14 13 12 11 10 9 9 9 9 8 8 7 6 5 5 4 3 2 1 2 4 5 7 10 11 13 15 17 19 20 22
21 21 20 20 19 18 17 17 17 17 17 16 15 15 13 12 12 11 10 10 10 10 9 9 8 7 6 6 5 3 2 1 2 4 5 7 9 11 13 15 17 19 21 22
21 21 21 20 19 18 18 18 18 17 17 16 16 15 14 13 13 12 12 12 11 11 10 10 9 8 7 6 5 4 3 2 2 3 5 7 9 11 13 15 17 19 20 22
22 21 21 21 20 20 19 19 18 18 17 16 16 15 15 14 14 13 13 13 12 12 11 10 10 9 8 6 5 4 3 2 2 3 5 7 9 11 13 15 16 18 20 22
23 22 22 22 21 20 20 20 19 19 17 17 16 16 15 15 15 15 14 14 13 12 11 11 10 9 8 7 6 5 4 3 3 4 6 8 9 11 13 15 17 18 20 22
24 23 22 22 21 20 20 21 21 20 18 17 16 16 15 15 15 15 15 15 14 13 12 11 10 10 9 8 6 5 4 3 3 4 6 8 10 12 13 15 16 18 21 23

GEFSNGP_500_meanwind_198.txt.gz
Wind_Speed
15 16 16 17 17 18 19 19 20 20 20 21 21 22 22 22 22 22 22 22 23 22 22 21 22 23 22 22 21 19 17 16 15 15 15 15 15 16 16 15 16 15 15 15
17 18 18 18 18 19 19 20 20 20 20 20 21 22 22 22 21 21 21 21 22 22 21 21 21 21 21 20 18 17 16 16 15 14 15 15 15 15 15 15 14 14 14 14
18 19 19 19 19 20 20 21 21 20 20 20 20 21 22 21 21 21 21 22 22 20 20 20 20 20 19 18 16 15 16 15 15 15 14 14 15 14 14 14 14 14 14 14
20 20 20 20 20 20 21 21 21 20 20 20 21 21 21 21 21 21 21 21 20 20 20 19 19 19 18 17 15 15 15 16 15 14 14 14 14 14 13 14 14 13 13 14
22 21 21 20 20 21 21 21 21 20 20 21 21 21 21 22 21 21 21 19 19 20 20 19 18 18 18 16 15 16 15 16 15 15 15 14 14 13 13 14 14 13 13 14
23 23 22 21 21 22 22 21 21 21 21 21 22 22 21 21 21 21 20 19 19 19 19 18 18 18 17 16 15 15 16 16 15 15 15 15 14 13 14 14 13 12 12 13
24 24 23 23 22 22 22 22 22 21 21 21 22 22 21 21 21 22 20 19 19 18 18 18 17 17 16 15 15 15 15 15 15 15 14 14 13 12 12 13 13 12 13 13
25 25 23 23 22 22 22 22 22 22 22 22 22 22 21 21 21 21 20 18 18 17 17 17 17 16 15 14 14 14 14 14 14 15 14 13 12 12 12 12 12 12 13 14
26 26 25 24 24 23 23 22 22 22 22 22 22 22 21 21 21 20 19 17 16 16 16 16 16 15 14 13 13 13 13 13 13 13 13 12 12 12 12 11 12 13 13 14
27 26 26 26 25 24 23 23 23 23 23 22 22 22 22 22 21 20 18 16 15 15 15 15 15 14 13 12 12 12 13 12 12 12 11 11 11 12 12 13 13 14 14 15
28 27 27 27 26 26 25 24 24 24 23 22 22 22 22 22 20 19 18 16 15 15 14 14 14 12 11 11 11 11 12 12 12 11 11 11 12 12 12 12 13 14 15 15
29 28 28 27 27 27 26 25 25 25 23 22 22 22 21 21 20 18 17 16 15 15 14 13 13 11 10 10 10 10 11 11 11 11 11 11 11 12 12 12 13 14 15 16
29 29 29 29 28 28 28 27 26 25 23 22 22 21 21 20 19 17 16 15 15 14 13 13 13 11 10 10 10 10 10 10 10 10 11 11 11 11 12 12 13 14 16 17
30 30 30 29 29 28 27 27 25 24 24 23 22 21 20 19 18 17 16 15 14 13 13 12 12 10 9 9 9 8 8 8 9 9 10 10 11 11 11 12 13 14 15 17
30 30 30 30 29 28 27 26 25 25 25 24 23 21 20 19 18 17 15 14 14 13 12 12 11 10 9 8 7 6 6 7 8 8 9 9 9 10 11 12 13 14 16 17
31 31 31 30 29 28 27 27 26 25 25 24 23 21 20 19 17 16 15 14 14 13 12 11 10 10 8 7 6 5 6 6 7 8 8 8 8 9 10 12 14 15 16 18
32 31 31 30 28 28 27 27 26 25 24 24 22 21 20 18 17 16 15 14 14 13 12 11 10 9 7 6 5 5 5 6 6 6 6 6 7 8 10 12 13 15 17 19
31 31 30 30 29 28 28 27 26 25 24 23 22 21 19 18 17 16 15 14 13 12 12 11 9 8 7 6 5 5 5 5 5 5 5 6 7 8 10 12 14 15 17 19
30 29 29 29 28 28 27 27 26 25 24 23 21 20 19 18 16 15 15 14 13 13 12 11 9 8 7 6 5 5 5 4 3 3 4 5 6 8 9 11 14 15 17 19
28 27 27 27 27 27 26 25 25 24 23 22 21 20 19 18 17 15 15 14 13 12 11 10 9 8 7 6 6 5 4 3 3 3 3 5 6 8 9 11 13 15 17 19
26 26 26 26 25 25 24 23 23 23 23 22 20 19 19 18 17 16 15 14 13 12 11 11 10 9 7 7 6 5 4 3 3 2 3 4 5 7 9 11 13 15 17 18
24 24 24 24 24 24 23 22 22 22 21 21 19 18 18 18 17 16 15 14 13 13 12 11 10 9 8 7 6 5 4 3 2 2 3 4 5 7 9 11 13 15 17 18
22 22 23 23 23 23 22 21 21 21 20 20 19 18 18 18 17 17 15 14 14 13 12 11 10 9 9 8 7 6 5 4 3 3 3 4 5 7 9 11 12 15 17 18
23 23 23 23 22 22 22 21 21 20 20 20 19 19 19 18 18 17 16 15 14 13 12 11 11 10 9 8 8 7 6 5 4 4 4 5 6 7 9 10 12 14 16 18
23 23 23 23 22 22 22 22 21 20 20 19 20 20 19 19 18 17 16 15 15 14 13 13 12 11 10 9 8 8 6 5 5 4 5 5 6 7 9 10 12 14 16 18
24 24 24 24 24 24 23 22 21 20 20 20 20 20 20 19 19 18 17 16 16 15 14 14 13 12 11 10 10 9 7 6 6 5 5 6 6 8 9 10 12 14 17 19
25 25 25 25 25 25 24 23 22 21 21 21 21 21 20 20 20 19 18 17 17 16 15 15 14 13 12 11 11 10 8 7 6 6 6 6 7 8 9 11 12 14 17 18

GEFSNGP_500_meanwind_204.txt.gz
Wind_Speed
15 16 16 16 17 17 17 17 18 20 20 21 21 22 22 22 21 22 22 22 22 21 22 22 22 22 22 21 21 20 19 18 17 15 14 14 14 14 14 14 13 14 14 14
16 17 17 17 17 17 18 19 20 20 21 21 21 22 22 22 22 23 22 22 22 21 21 21 21 21 20 20 19 18 17 16 15 14 14 14 14 14 14 14 14 14 14 13
17 17 18 18 18 18 19 20 20 20 21 21 22 23 22 21 22 23 23 22 21 20 20 20 20 19 19 18 17 17 16 15 14 13 13 14 14 15 14 13 14 14 13 13
17 18 18 19 18 19 19 20 20 20 21 21 22 22 21 21 22 22 22 21 20 19 19 19 19 18 18 18 16 15 15 14 14 13 13 14 14 14 14 14 14 13 13 13
19 19 20 20 19 19 20 20 20 20 21 21 21 21 22 21 22 22 21 20 19 18 18 18 17 17 17 16 15 14 14 14 13 13 13 14 14 14 14 14 14 13 13 13
21 21 21 21 20 20 21 21 20 20 21 21 21 21 22 22 21 21 21 19 19 18 18 17 17 16 16 15 13 13 13 13 12 12 13 13 13 14 14 14 14 13 13 14
22 22 23 22 21 21 21 22 21 20 21 21 21 21 22 22 21 21 20 19 18 18 17 17 17 16 15 13 12 12 12 12 12 12 13 13 14 14 13 13 13 13 13 14
23 24 24 23 22 22 22 22 21 21 21 21 22 22 21 21 20 20 19 19 18 17 17 16 16 15 14 13 13 12 12 12 12 12 13 13 13 13 12 13 12 13 13 14
24 24 25 24 23 23 23 22 22 22 22 22 22 21 21 21 20 19 19 18 18 17 16 15 14 13 12 13 12 12 12 12 12 12 13 13 13 12 12 13 13 13 13 14
26 25 25 25 24 24 24 24 24 24 23 23 22 21 21 21 20 19 18 18 17 15 14 13 13 12 11 11 11 11 11 11 11 12 12 12 12 12 12 12 13 13 14 14
27 27 27 26 26 26 26 25 25 25 24 23 23 22 22 21 20 18 17 16 15 14 13 12 11 11 11 11 10 10 9 10 10 11 11 10 11 11 11 12 13 14 15 15
29 29 28 27 27 26 26 26 26 26 25 24 24 23 23 21 20 18 16 16 14 13 13 12 11 10 10 10 9 9 9 9 9 9 9 9 10 10 10 11 13 15 16 17
30 29 29 28 28 28 27 27 26 25 25 25 24 24 23 21 20 18 16 15 14 13 12 11 11 11 10 9 9 9 9 9 8 8 8 8 8 8 9 11 13 14 15 16
30 30 30 29 29 28 28 27 26 25 25 25 24 23 22 20 19 18 16 15 14 13 12 11 11 10 9 9 9 9 8 8 7 7 7 7 7 8 8 10 12 13 14 16
31 31 30 30 29 29 28 27 26 26 25 24 23 22 21 19 18 17 15 14 14 13 13 12 12 11 10 9 9 8 8 7 7 6 6 6 6 6 7 9 10 12 13 15
31 31 30 30 29 29 28 27 27 26 25 24 22 21 20 19 17 16 15 14 14 13 13 13 12 12 11 10 9 8 7 7 6 6 5 4 5 6 7 8 10 11 13 15
30 30 29 29 28 28 27 26 26 25 24 24 22 21 20 19 18 16 15 14 14 14 13 13 12 11 10 10 8 8 7 7 6 5 4 4 4 5 6 8 9 11 13 15
29 29 28 28 27 27 26 26 25 24 23 23 21 20 19 19 18 17 16 15 15 14 13 13 12 11 10 10 9 8 7 7 6 4 3 3 3 4 6 6 8 10 12 15
29 28 27 26 26 26 25 25 24 23 22 21 20 20 19 19 18 18 17 16 15 14 14 14 13 12 11 10 9 8 7 7 5 4 4 3 3 4 5 6 7 10 12 14
27 27 26 25 25 24 24 23 23 22 21 21 20 20 19 19 18 18 17 17 16 15 14 14 12 12 11 11 10 9 8 7 6 5 5 4 4 4 4 5 7 9 11 13
25 25 25 24 23 22 22 21 21 22 21 21 20 20 20 19 19 18 18 17 16 15 14 13 13 12 11 11 10 9 8 7 6 5 4 4 3 4 5 5 7 8 10 12
25 24 24 23 21 20 20 20 20 21 21 21 21 20 20 19 19 19 18 17 16 16 15 14 13 12 12 11 10 9 7 7 6 5 4 4 4 4 5 6 7 8 10 12
24 24 23 22 21 20 20 20 20 21 21 20 20 20 19 19 18 18 18 17 17 16 16 15 14 13 12 11 9 9 8 7 7 6 5 5 4 4 5 6 7 9 10 12
24 24 23 23 22 21 21 20 20 21 21 20 20 20 19 19 19 18 18 17 17 17 16 15 14 13 12 11 10 9 9 8 8 7 6 6 6 5 6 7 8 9 10 12
24 24 24 24 23 22 21 20 19 20 21 21 20 19 18 18 18 18 18 18 17 17 17 16 15 14 13 12 11 10 10 9 9 8 7 7 7 6 6 7 8 9 10 12
25 25 25 25 23 22 22 21 20 20 20 21 20 19 19 17 17 17 18 18 18 18 17 16 16 15 14 13 12 12 11 11 10 9 8 8 7 7 7 8 8 9 10 12
26 26 26 25 24 24 24 23 22 21 20 20 20 19 19 18 18 18 18 19 19 19 18 17 17 16 15 15 14 13 12 12 11 10 10 9 8 8 8 8 9 10 10 12

GEFSNGP_500_meanwind_210.txt.gz
Wind_Speed
15 15 16 17 16 16 17 18 19 19 19 20 24 23 23 23 23 24 24 24 24 24 23 23 22 22 21 20 20 20 19 20 21 21 20 20 19 18 18 18 17 17 17 16
16 16 16 17 17 17 17 18 19 20 20 21 22 23 23 23 23 23 23 23 23 22 22 21 21 21 20 20 20 20 19 19 19 20 20 19 18 18 17 16 16 17 16 15
18 17 18 19 17 17 18 19 20 20 20 21 21 21 22 22 22 22 22 22 22 22 21 20 19 20 20 20 20 19 19 18 18 18 18 17 17 15 16 16 16 16 15 15
19 19 19 19 18 19 19 20 21 22 22 22 22 22 21 22 22 21 21 21 21 20 20 20 20 20 19 19 19 18 18 17 17 17 17 16 15 15 15 16 16 16 15 14
19 19 20 20 19 20 21 21 21 22 22 22 22 22 22 22 22 21 20 20 20 20 20 20 19 19 19 18 18 17 16 16 16 16 16 15 14 13 15 16 16 15 15 16
21 21 21 21 21 22 22 23 23 23 22 22 22 22 22 22 22 21 20 20 20 20 20 20 19 18 18 17 16 16 15 15 16 16 16 16 15 15 15 15 15 15 15 16
23 23 24 23 23 23 23 24 24 24 23 23 23 22 22 22 21 21 20 20 19 19 19 19 18 18 17 16 16 15 15 15 16 15 15 15 15 15 15 15 14 14 14 15
25 25 26 25 25 24 24 25 25 25 25 25 24 23 22 22 21 21 20 19 19 19 18 18 18 17 16 15 15 15 15 16 16 15 14 14 14 14 14 14 15 15 15 15
27 27 27 27 27 27 27 26 27 26 26 26 25 24 23 22 20 20 19 18 18 18 18 18 17 16 15 15 14 14 14 14 14 14 13 13 13 13 13 14 15 15 15 16
28 28 29 29 29 28 28 28 28 28 27 26 25 24 23 22 21 20 19 18 18 18 18 17 17 16 15 14 14 13 13 12 12 12 13 13 13 12 13 14 15 15 16 17
29 29 29 31 30 30 30 30 29 27 27 26 25 24 23 22 22 21 20 19 18 17 17 16 15 14 14 14 13 13 12 12 11 12 12 12 12 12 13 14 14 15 16 16
30 30 31 31 31 31 31 30 29 28 27 27 26 25 24 23 22 21 20 18 17 16 16 15 14 14 14 14 13 12 11 11 11 12 11 10 10 11 12 13 14 14 15 16
31 31 32 33 33 32 31 30 29 28 28 27 26 25 24 23 22 21 20 18 17 16 15 14 14 14 14 13 12 11 11 10 11 10 9 9 9 10 11 12 13 14 15 16
32 32 33 32 33 32 31 30 29 28 28 27 26 25 24 23 22 21 20 19 17 16 15 14 14 14 14 13 13 12 11 10 9 9 8 8 9 9 10 10 12 13 14 14
31 32 32 31 31 31 30 29 29 28 28 27 26 25 24 24 22 21 19 18 17 16 15 15 15 14 14 13 13 12 11 10 9 8 7 8 8 9 9 9 11 12 13 14
32 32 32 31 30 30 30 29 28 27 27 26 26 25 24 23 22 21 20 18 17 17 16 16 16 15 14 13 13 12 11 9 8 7 8 8 8 8 8 9 10 11 13 14
31 31 30 30 29 29 28 28 27 26 25 25 24 24 23 22 22 21 20 20 19 18 18 17 17 16 15 14 13 12 11 10 9 8 8 7 8 8 8 9 10 11 12 13
31 31 30 30 28 28 28 27 26 25 24 23 23 22 22 22 22 22 21 21 20 19 19 18 17 15 15 14 13 11 11 11 10 9 8 8 8 8 8 9 9 10 12 13
30 30 30 29 28 28 27 26 25 24 24 23 22 21 21 21 21 22 21 20 20 19 18 17 16 15 14 14 13 12 11 11 10 9 8 8 9 8 8 8 9 10 11 12
30 29 29 29 28 28 27 26 25 24 23 23 23 22 22 21 21 21 21 20 19 19 18 17 16 15 14 14 13 13 12 11 10 9 8 8 8 8 8 8 8 10 10 12
30 29 29 28 28 27 26 26 25 25 25 24 24 23 22 22 22 22 21 20 19 18 18 17 16 15 14 14 13 12 12 11 10 9 9 9 9 8 8 9 9 10 10 12
29 29 28 27 27 27 26 26 26 25 25 24 24 23 23 23 22 21 20 19 19 18 18 17 16 15 15 14 13 12 11 11 10 10 10 9 9 8 8 9 9 10 11 12
29 28 28 27 27 26 26 26 25 24 24 24 23 23 23 22 22 21 20 19 19 19 18 17 16 15 15 14 13 13 12 12 11 10 9 8 9 9 9 9 9 10 10 11
29 28 27 27 27 26 26 26 26 25 24 23 22 22 22 21 21 21 20 19 18 19 19 18 17 16 15 15 14 13 13 13 12 11 10 9 9 10 10 9 9 10 10 11
29 28 27 27 27 26 26 25 24 24 23 22 22 21 21 20 20 20 19 19 18 18 18 18 17 17 17 16 15 15 14 13 12 11 10 9 9 10 10 10 10 10 11 11
29 27 27 26 26 25 25 24 23 23 23 22 22 21 21 20 20 19 19 19 19 19 18 18 18 18 17 17 16 15 15 14 13 13 12 11 10 10 10 11 11 11 11 12
27 26 26 26 26 25 25 24 23 23 23 22 21 20 20 20 20 19 19 18 19 19 19 19 18 18 18 17 17 16 16 15 15 14 14 12 11 11 11 11 11 12 12 12

GEFSNGP_500_meanwind_216.txt.gz
Wind_Speed
17 16 16 16 15 15 15 16 17 17 17 18 18 18 18 18 18 19 18 18 18 17 17 18 19 19 19 19 18 17 18 18 18 17 17 17 17 17 17 16 16 16 16 14
17 17 17 17 16 16 17 16 17 18 18 18 18 18 18 17 17 17 17 17 17 16 16 17 18 18 18 17 17 17 18 18 17 17 16 17 17 17 16 16 16 15 15 13
19 19 19 17 15 16 17 17 18 18 18 19 19 18 18 17 16 17 17 16 16 17 17 18 18 17 17 16 16 17 17 17 17 16 16 16 16 17 16 16 17 16 14 14
20 20 20 18 17 16 17 17 18 18 19 19 18 17 17 16 16 16 16 16 16 17 17 17 17 16 16 15 15 15 16 16 16 16 16 16 16 16 16 16 16 15 14 13
23 22 22 19 17 17 17 18 18 19 19 19 19 17 17 16 15 16 16 17 16 16 16 16 16 16 15 15 15 15 15 16 16 16 16 16 16 16 15 14 13 13 14 13
23 23 23 20 18 17 18 19 19 20 20 20 20 18 17 17 16 16 17 17 16 16 16 16 16 15 15 15 15 15 15 16 16 16 16 16 16 17 16 14 12 12 13 13
24 24 24 21 19 18 20 20 20 21 20 20 20 18 17 17 18 18 17 17 17 16 16 16 16 15 15 14 15 15 15 15 15 16 16 16 16 17 15 13 12 12 13 13
25 25 25 23 21 21 21 21 21 21 20 20 20 19 18 18 18 17 17 17 16 16 16 15 15 15 15 15 15 15 15 15 15 16 16 16 16 16 14 12 11 12 12 13
26 26 25 24 23 23 22 23 23 22 21 20 20 20 20 19 19 18 18 17 16 16 15 15 15 15 15 15 15 15 15 15 15 16 16 16 16 15 13 12 11 12 13 13
27 27 26 26 25 25 24 24 24 22 21 21 21 21 21 21 21 20 19 18 17 16 15 15 15 15 15 15 15 15 15 15 14 14 15 15 14 13 12 11 11 12 12 13
28 28 28 28 27 26 26 25 24 24 23 22 22 22 21 21 22 21 20 19 18 16 15 15 14 15 14 14 14 14 14 14 14 14 15 14 13 11 11 11 11 12 12 13
28 28 29 28 28 27 26 26 25 25 25 24 23 23 23 22 22 22 20 19 18 16 16 15 15 15 14 14 14 14 14 14 13 13 13 12 11 11 11 10 11 11 12 12
29 28 28 28 28 27 27 27 27 27 26 25 24 24 24 23 21 21 21 20 19 18 17 16 15 15 15 14 14 14 14 13 13 12 11 10 10 10 10 10 10 11 11 12
28 29 29 28 28 28 28 28 28 28 27 26 25 24 23 22 22 22 22 21 20 18 17 17 16 15 15 14 14 14 14 13 13 11 10 10 10 10 10 10 10 10 11 12
28 28 29 30 29 29 29 29 29 28 27 26 26 25 24 23 22 22 22 21 20 19 18 17 16 16 15 14 14 14 13 13 12 11 10 10 11 11 11 10 10 10 11 11
30 30 28 28 29 30 31 30 30 29 28 26 26 26 25 23 22 22 21 21 20 19 18 18 17 16 15 14 14 14 13 12 11 11 10 10 11 11 11 11 10 11 11 11
30 30 30 28 28 28 29 30 29 28 27 27 26 25 24 23 22 22 21 20 20 19 18 18 17 16 16 15 15 14 13 12 11 11 10 10 11 11 11 12 11 10 11 11
29 29 29 29 29 28 28 27 26 26 26 26 25 24 22 22 21 21 21 20 19 18 18 18 18 17 16 16 15 14 13 12 11 11 11 11 11 11 11 12 11 10 10 10
29 28 28 28 28 28 27 26 25 25 24 24 24 23 23 22 22 21 20 20 19 19 19 18 18 17 17 16 15 15 14 13 12 12 12 12 12 12 11 11 10 9 9 9
29 29 28 27 26 26 26 24 24 25 24 23 23 23 23 22 21 20 20 19 20 20 20 19 18 18 18 17 16 16 15 14 14 14 13 13 13 12 12 11 10 9 9 9
28 28 27 26 26 25 24 24 25 25 24 23 22 22 22 22 21 20 20 20 20 20 20 20 19 19 18 18 17 17 16 16 15 14 14 13 13 12 12 11 10 9 9 9
26 26 26 26 25 25 25 25 25 25 24 23 23 23 22 22 21 21 21 20 20 19 19 19 19 19 18 18 18 17 17 16 15 15 15 14 13 12 12 11 10 10 9 10
27 27 27 27 26 26 25 25 25 25 24 23 22 22 21 21 21 21 21 20 20 20 19 19 19 18 18 17 17 18 18 17 16 16 15 14 13 12 11 11 11 10 10 10
26 26 27 27 27 27 27 27 26 26 25 23 22 21 21 21 21 20 20 21 20 19 19 19 19 18 18 17 17 17 17 17 17 17 16 14 13 12 12 11 11 10 10 11
27 26 26 26 26 26 27 26 25 25 24 23 23 22 22 21 21 20 20 20 20 20 19 19 19 18 18 18 18 17 17 18 18 17 16 15 14 13 12 11 11 11 11 11
27 26 25 26 26 26 26 26 25 24 24 24 24 24 23 23 22 20 19 19 19 19 19 18 19 18 18 18 18 17 17 18 17 17 16 14 14 13 12 12 12 12 11 12
26 26 26 26 25 25 25 25 24 24 23 24 23 23 23 23 22 21 20 20 19 19 19 18 18 18 18 18 18 17 17 17 16 15 14 14 13 13 13 12 12 12 11 11

GEFSNGP_500_meanwind_222.txt.gz
Wind_Speed
19 19 19 19 19 20 20 20 21 20 19 19 20 20 19 18 16 16 15 14 13 14 15 15 16 16 16 16 16 16 16 17 18 19 18 18 17 17 17 17 17 17 17 16
21 21 21 20 20 21 21 21 21 20 20 20 20 19 17 17 16 16 14 13 13 14 14 15 16 16 16 16 16 16 16 17 18 18 17 17 17 18 18 18 18 17 17 16
23 22 23 22 21 20 20 20 21 20 19 19 18 17 16 16 15 16 15 14 14 14 15 16 16 17 16 16 16 16 17 17 17 17 17 17 18 19 18 18 18 17 17 16
24 23 24 22 21 21 21 20 20 20 19 19 17 16 15 15 15 15 15 14 15 16 15 15 15 15 15 15 16 16 17 17 17 18 18 19 19 19 19 18 17 17 17 16
25 25 24 22 22 22 22 21 20 20 20 19 18 17 16 15 15 15 15 14 15 15 15 15 15 14 15 15 15 15 16 17 17 17 17 18 18 18 18 18 17 17 16 16
27 27 26 24 23 23 23 22 21 21 20 19 18 17 16 16 16 16 16 15 14 14 15 15 15 14 14 14 15 15 15 16 16 16 17 17 18 19 19 18 17 17 16 17
28 28 27 25 24 24 24 23 22 21 20 19 19 18 17 16 16 16 16 15 15 15 16 15 14 14 14 14 14 14 14 15 15 16 16 17 18 18 18 18 17 17 17 17
29 29 29 27 26 25 24 24 23 22 21 21 20 20 19 18 17 17 17 16 17 17 16 16 14 14 14 14 13 14 14 14 15 16 17 17 17 17 17 16 17 17 17 18
31 30 30 30 28 27 26 26 26 25 23 22 21 20 19 19 18 18 17 17 18 18 16 16 15 14 14 14 13 13 14 15 16 16 17 16 16 16 15 16 16 17 18 18
32 32 31 31 29 28 28 27 27 25 24 23 21 21 20 19 19 19 19 19 19 18 17 17 16 15 15 14 14 14 14 15 15 16 16 16 16 15 15 15 16 17 17 18
33 33 32 31 31 30 29 29 27 26 25 24 23 22 21 21 22 21 21 20 20 19 18 17 16 15 15 15 14 13 13 14 14 15 15 16 15 15 15 15 16 17 17 18
32 32 33 32 31 31 30 29 27 26 26 25 25 24 24 23 22 22 21 21 20 19 18 17 16 15 15 15 14 13 13 13 14 14 14 15 14 14 14 15 16 16 17 17
31 31 32 32 32 31 30 29 29 28 27 26 26 25 25 24 23 22 22 22 21 20 19 18 17 16 16 15 15 14 13 14 14 14 14 14 13 13 14 15 16 17 17 17
31 31 30 30 31 31 31 30 30 30 29 27 27 27 26 26 25 24 23 23 22 21 20 19 18 16 16 16 15 14 14 14 14 14 14 14 13 13 14 15 15 16 16 17
33 33 32 31 30 31 31 31 30 30 29 29 28 27 26 25 25 25 24 23 22 21 20 19 18 17 17 16 16 15 15 14 14 14 14 13 13 14 14 15 16 16 17 17
32 32 31 30 30 30 30 30 29 29 29 28 28 27 27 25 25 25 24 23 22 21 21 20 19 17 17 16 16 16 16 15 15 15 15 14 13 14 15 15 16 16 16 16
31 31 30 29 30 30 31 31 30 29 29 28 28 27 26 25 25 25 24 24 22 22 22 21 20 19 18 18 17 17 17 17 17 16 16 15 14 15 15 16 16 16 16 16
29 29 30 29 30 29 30 30 30 29 28 28 27 27 26 25 25 24 24 23 22 22 22 21 20 20 19 19 19 18 18 18 18 17 16 15 15 15 16 16 16 16 16 16
28 29 29 30 29 29 28 29 28 28 27 27 26 25 25 25 24 24 23 22 21 21 21 21 21 21 21 20 19 19 18 18 18 17 17 17 16 16 16 17 16 16 16 16
28 29 29 30 30 29 29 28 28 27 27 26 26 26 24 23 22 22 22 22 22 22 21 22 21 21 21 20 20 19 18 18 18 18 18 18 17 17 17 17 17 17 17 16
27 27 27 28 28 28 28 28 27 27 26 26 25 25 25 24 23 22 22 22 22 22 22 22 21 21 21 21 20 20 19 19 18 18 17 17 17 17 17 17 17 17 16 15
26 26 27 27 27 26 27 27 27 27 26 26 25 25 24 23 23 23 22 22 22 22 22 22 21 21 20 20 20 19 18 18 18 18 18 17 17 17 17 17 16 15 15 15
27 27 27 27 27 26 26 25 26 27 27 26 25 25 24 23 23 23 23 22 22 22 22 22 21 21 20 20 20 19 19 19 18 18 18 18 17 17 17 17 16 15 14 13
28 28 27 27 27 27 26 27 28 28 28 27 26 26 25 24 23 22 22 22 22 22 22 21 20 20 20 20 19 19 19 18 18 18 18 17 16 16 16 15 15 14 13 13
27 27 27 27 27 26 26 27 27 26 25 24 24 24 24 24 24 23 22 22 22 22 21 20 19 19 19 19 19 19 18 18 18 18 18 17 16 15 15 14 14 13 12 12
25 25 26 27 26 26 27 27 27 26 26 25 24 23 23 23 24 23 23 22 22 21 20 20 19 19 19 19 19 18 18 18 18 18 17 16 15 15 14 14 13 12 12 12
25 25 25 25 25 25 25 25 25 25 25 25 24 24 24 24 24 23 23 23 22 22 21 21 20 20 20 19 19 18 18 18 17 17 16 16 15 15 14 13 13 13 13 13

GEFSNGP_500_meanwind_228.txt.gz
Wind_Speed
19 19 18 18 18 18 18 18 18 18 18 18 18 17 16 16 15 14 14 13 13 13 13 13 14 14 14 13 13 13 13 14 14 14 14 14 15 15 16 16 17 16 15 14
21 20 20 20 20 19 19 19 19 19 19 18 17 17 16 16 14 14 13 13 13 13 12 13 14 14 14 13 13 13 13 13 14 15 14 14 14 15 16 16 16 15 15 15
22 22 22 22 20 20 20 20 20 20 20 19 18 17 16 15 14 13 13 13 12 12 12 13 14 14 13 13 13 13 13 13 14 14 14 14 15 15 15 15 15 15 16 16
24 24 25 23 22 22 22 22 21 21 20 19 18 17 16 16 15 14 13 13 12 12 12 13 14 13 13 13 13 13 13 13 13 13 13 14 14 14 14 14 14 15 16 17
25 25 26 25 23 23 23 23 23 22 21 19 18 16 16 15 15 14 13 13 13 13 14 14 14 13 13 14 13 13 12 12 12 12 12 13 14 14 14 14 14 15 16 17
26 27 27 27 26 25 24 24 23 22 21 20 18 17 17 16 15 15 14 14 14 14 14 14 14 14 14 13 13 13 12 12 12 11 11 12 13 14 13 14 14 15 16 17
27 28 28 28 27 25 25 25 24 23 22 21 20 19 18 17 17 17 15 14 14 14 14 14 14 14 13 13 13 12 12 12 12 11 11 12 13 13 13 14 15 16 16 18
27 28 29 28 27 27 27 27 26 24 23 22 21 20 19 19 19 18 16 15 16 16 15 15 14 14 14 13 12 12 11 11 11 10 11 12 12 12 12 13 14 15 16 17
29 29 30 29 29 28 27 27 26 25 23 23 22 21 20 20 19 18 17 17 17 17 16 16 15 14 13 12 12 11 11 11 11 10 11 11 11 11 12 13 14 15 15 16
29 29 29 29 28 28 27 27 27 26 25 24 23 22 21 21 20 19 18 18 17 17 17 16 15 14 13 13 13 13 12 12 12 12 12 12 11 11 12 12 13 14 15 16
30 29 29 29 29 28 28 27 27 27 26 26 24 23 23 22 21 20 19 19 19 18 18 17 16 15 15 14 13 13 13 13 13 13 13 13 12 12 12 14 14 14 15 16
29 29 29 28 28 29 29 28 27 27 27 26 25 25 24 23 22 21 20 20 20 19 18 17 17 16 15 14 14 13 13 13 13 14 13 13 13 13 14 14 14 14 15 16
29 29 29 29 28 28 29 29 29 28 28 27 26 25 24 23 22 22 22 21 20 20 19 18 17 17 16 16 15 14 14 14 14 13 14 14 14 14 14 14 15 15 16 16
30 30 30 29 29 29 29 29 29 29 29 28 27 26 25 24 23 23 22 22 21 20 19 19 18 18 17 17 16 15 15 15 15 14 14 15 15 15 14 15 15 16 16 16
30 30 30 30 30 30 30 29 29 29 29 28 27 27 26 25 24 24 23 23 22 21 21 20 19 19 18 18 17 16 16 16 16 15 15 15 15 15 15 16 16 16 16 16
30 30 30 30 29 29 29 29 29 29 29 28 27 26 26 25 25 24 24 23 23 23 22 21 20 20 20 19 19 18 18 17 17 16 16 16 16 16 16 16 16 16 16 16
30 30 29 29 29 29 29 28 28 29 29 28 27 26 26 26 25 25 24 24 24 24 24 23 22 21 21 20 19 19 18 17 17 17 17 17 17 16 16 16 16 16 16 15
29 30 30 29 29 28 27 27 27 27 27 27 27 27 26 26 26 25 24 24 25 24 24 24 24 23 22 20 20 19 19 18 18 18 17 17 17 17 17 17 17 16 16 15
29 28 28 29 28 28 28 27 27 26 27 27 27 27 27 27 27 27 26 25 24 24 24 24 23 22 21 21 20 19 18 18 18 18 18 17 17 16 16 16 15 15 15 15
27 27 28 28 28 28 28 27 27 26 26 26 25 25 25 26 26 26 25 24 23 23 24 23 23 22 22 21 20 20 19 18 18 18 18 17 17 16 16 15 15 15 15 15
25 25 25 26 26 26 26 25 25 25 26 26 25 26 25 25 24 24 24 23 23 24 24 24 23 23 23 22 21 20 19 19 19 18 17 17 17 16 16 15 15 14 14 14
24 24 24 25 25 25 25 25 25 25 25 25 26 25 24 24 24 24 24 23 23 23 23 23 22 22 22 21 20 20 19 19 18 18 18 17 17 16 16 15 14 14 14 13
21 22 24 25 25 25 25 25 25 25 25 25 24 25 24 23 23 24 24 24 23 23 24 23 22 21 21 21 21 20 19 19 19 18 18 17 16 16 16 15 15 15 14 14
22 23 23 24 24 25 25 25 25 25 26 26 26 26 25 24 24 23 23 22 23 23 23 22 22 22 21 21 20 19 19 18 18 18 18 17 16 16 15 15 15 15 15 14
22 22 22 22 22 23 24 24 25 25 25 25 26 27 26 25 24 23 23 23 23 22 22 22 22 21 20 20 20 19 18 18 17 18 17 16 16 16 16 15 15 14 14 14
20 20 21 22 22 22 22 22 23 24 24 24 24 25 25 25 25 25 25 24 23 23 23 23 23 23 21 20 19 19 19 18 18 18 17 16 15 15 16 15 15 14 14 14
20 20 20 20 21 21 21 22 22 22 22 23 23 23 23 23 24 25 24 23 23 23 23 23 22 22 22 21 20 19 19 18 18 17 16 16 15 15 16 16 15 15 15 14

GEFSNGP_500_meanwind_234.txt.gz
Wind_Speed
22 20 20 20 18 18 18 18 18 18 19 21 21 20 21 21 21 21 20 19 19 18 17 17 17 17 16 15 15 15 15 15 15 15 15 15 15 16 17 17 17 17 17 17
23 22 22 22 20 20 20 19 19 19 20 22 21 21 21 22 22 21 20 20 19 18 17 17 17 16 16 15 15 15 15 15 15 14 14 15 15 16 16 16 16 16 17 17
24 23 23 23 22 22 21 21 21 21 22 23 23 22 22 22 22 21 20 19 18 17 16 17 16 16 16 15 14 14 14 14 14 14 14 14 15 15 15 16 16 16 17 18
25 25 25 23 22 23 23 23 23 23 23 24 24 22 22 21 22 22 20 19 18 17 16 16 16 15 15 14 13 13 13 14 13 13 13 14 14 15 16 16 17 17 17 17
26 26 25 24 24 24 24 24 24 24 25 26 25 24 23 22 22 22 20 19 19 17 16 16 15 15 14 13 13 13 13 13 13 13 13 14 14 15 15 16 16 16 17 17
27 27 27 26 26 26 26 26 26 27 27 27 25 24 23 22 21 20 19 19 18 18 17 16 15 14 14 13 13 13 12 12 13 13 13 14 15 15 16 16 16 16 17 17
28 28 27 27 28 27 27 28 29 28 28 27 26 24 24 23 21 20 20 20 19 19 19 18 17 15 14 14 13 13 13 13 14 13 13 14 15 15 15 15 16 16 17 17
27 28 27 28 28 28 29 29 29 29 29 28 26 25 24 23 23 22 22 21 20 20 19 18 18 17 16 15 14 14 14 14 14 15 14 15 15 15 15 15 16 16 17 17
29 29 29 29 29 30 30 30 29 30 29 28 27 26 26 24 23 23 23 22 21 20 19 19 19 18 17 16 16 16 16 15 16 16 15 15 15 15 15 16 16 17 17 17
30 29 29 29 30 31 31 30 30 29 29 28 27 27 26 25 24 23 23 23 22 21 20 20 20 19 18 18 18 18 18 17 17 16 16 16 16 16 16 16 16 17 17 17
31 30 31 31 31 32 32 31 32 31 30 29 29 28 28 27 26 25 24 23 23 22 21 20 20 19 19 19 19 18 18 18 18 17 17 17 17 17 16 16 17 17 17 17
32 32 33 33 32 31 31 31 31 31 29 29 30 29 29 28 27 26 25 24 23 22 21 21 20 20 20 19 19 19 19 20 19 19 18 18 18 17 16 16 17 17 17 18
33 32 32 32 31 31 32 32 31 30 30 30 30 29 29 29 29 27 26 25 25 24 23 22 21 21 20 20 20 20 20 20 20 19 19 18 18 18 17 17 17 17 17 17
32 31 31 30 31 31 30 31 31 30 30 30 30 29 29 28 28 28 27 26 25 25 24 23 22 22 21 21 21 21 21 21 21 20 20 19 18 18 18 17 17 17 17 16
31 31 31 30 31 31 30 30 30 30 30 30 30 29 28 28 28 27 27 26 26 26 25 24 23 22 22 22 22 22 23 23 22 21 20 19 19 19 19 18 17 17 17 17
31 31 31 31 30 30 30 30 30 30 30 30 30 29 28 28 27 27 27 27 27 27 26 25 23 23 23 22 23 23 23 22 21 21 21 20 20 19 19 18 17 17 17 16
30 31 31 30 30 30 30 29 29 30 30 30 29 29 28 28 27 27 27 26 26 25 24 23 23 23 22 22 22 23 22 22 22 22 21 21 20 19 19 19 18 17 17 16
30 29 29 29 29 29 29 29 29 29 29 29 29 28 28 28 27 27 26 25 25 24 24 23 23 23 22 22 22 23 22 22 23 21 21 21 21 20 19 19 18 17 17 16
29 29 29 29 29 30 30 30 29 28 28 28 29 29 29 28 27 26 26 26 26 25 25 24 24 24 23 23 23 23 22 22 22 21 21 21 20 19 19 19 18 17 16 16
28 28 28 28 28 28 29 29 29 28 28 27 28 28 27 27 27 27 27 26 26 26 26 25 25 25 24 24 24 23 23 23 22 21 20 20 19 19 19 18 17 16 16 15
27 27 26 26 26 26 26 27 28 27 26 26 26 26 26 26 26 26 27 26 26 26 26 26 25 25 25 24 24 23 22 22 22 21 20 20 19 18 18 18 17 16 16 15
25 25 25 24 24 23 24 24 25 25 25 25 25 26 26 26 26 26 26 26 26 25 25 25 25 24 24 24 24 23 22 22 21 21 20 19 18 18 17 17 16 15 15 15
24 24 24 23 23 23 24 24 24 23 23 24 24 24 25 25 25 25 25 26 26 26 26 26 25 25 25 25 24 23 23 22 21 20 19 19 18 18 17 16 15 15 15 15
25 24 23 23 23 22 22 22 23 23 23 24 24 23 23 23 24 25 26 26 27 26 27 27 26 26 25 24 23 23 22 21 20 19 18 18 17 16 16 15 15 15 15 15
24 23 23 23 23 23 22 21 21 22 22 22 22 23 23 24 24 24 25 25 25 26 26 26 26 25 24 24 23 22 21 20 19 18 17 17 16 16 16 15 15 15 15 15
24 23 23 23 23 22 22 21 21 21 22 21 21 22 22 23 24 24 24 24 24 24 24 23 23 22 22 22 21 20 19 19 18 17 16 16 16 16 16 16 16 16 16 15
24 23 23 22 22 22 22 21 22 22 21 21 21 22 22 23 23 23 23 23 22 22 22 22 21 21 20 20 19 19 19 18 18 19 18 17 17 17 17 17 16 16 16 16

GEFSNGP_500_meanwind_240.txt.gz
Wind_Speed
21 21 21 21 20 21 21 21 21 20 19 18 17 16 15 15 16 16 15 16 16 16 15 14 14 14 14 13 13 13 12 12 12 12 13 14 14 15 15 15 15 15 15 15
23 22 23 23 22 22 21 21 20 20 19 18 18 17 16 17 17 17 17 17 16 15 16 15 14 14 13 13 12 12 12 11 12 13 13 14 14 15 15 15 15 16 15 15
23 23 24 24 23 22 21 21 21 20 20 19 19 19 19 18 17 17 16 17 17 16 16 15 14 13 13 13 12 12 12 11 11 12 13 14 15 15 15 15 15 15 15 16
24 24 25 24 24 23 23 23 22 21 20 21 21 21 20 20 19 18 18 17 17 17 16 16 15 15 14 13 12 12 12 12 12 13 14 14 15 15 15 15 15 16 16 16
25 26 26 25 24 24 24 24 23 23 22 22 22 22 21 21 19 19 19 19 17 17 17 16 16 14 13 13 13 13 13 13 13 13 14 14 15 16 16 16 16 16 16 16
25 26 26 25 24 24 24 25 23 23 23 23 23 23 22 21 20 19 19 19 19 18 18 17 16 15 14 14 14 14 14 14 14 14 14 14 15 16 16 16 16 16 16 16
26 26 26 26 24 23 24 24 23 23 23 24 24 23 22 21 21 21 21 20 20 19 18 17 16 16 15 15 15 15 16 15 15 15 15 15 16 16 16 16 16 16 16 17
27 28 27 25 24 24 24 24 24 24 24 24 25 25 24 23 22 22 21 21 20 20 19 18 17 17 17 17 17 17 17 17 17 17 17 17 17 16 16 15 15 16 16 17
28 28 27 26 26 27 27 27 26 26 25 25 26 26 26 25 24 23 22 22 21 21 20 19 18 18 18 18 18 18 19 18 18 18 18 17 16 16 15 15 14 15 15 16
28 28 28 28 27 27 28 29 28 27 27 26 27 27 27 27 26 26 23 22 22 21 21 20 20 20 19 18 18 19 19 18 18 18 18 17 17 16 15 14 14 14 14 15
29 29 28 28 27 28 28 29 29 29 28 28 28 28 28 27 28 27 25 24 23 22 22 22 22 21 20 19 19 20 19 19 18 18 18 17 17 17 16 15 14 14 15 15
28 28 28 29 29 28 28 28 29 29 30 30 29 29 29 29 28 27 26 26 24 23 24 24 23 22 21 20 20 20 20 20 19 18 18 18 17 18 17 16 15 15 15 15
27 28 28 28 29 29 29 29 29 29 29 29 28 27 28 27 27 27 27 27 26 25 24 24 24 23 22 21 20 21 21 21 20 19 19 19 19 19 18 17 16 15 15 15
26 26 27 27 27 28 28 28 28 28 28 28 28 28 28 27 26 25 26 25 25 25 25 24 24 24 23 22 22 22 22 21 20 20 20 19 19 19 18 17 16 16 16 16
26 27 27 27 27 27 27 27 27 27 27 28 26 27 26 26 25 25 25 25 25 25 24 23 23 23 23 23 23 22 21 21 20 20 20 19 19 18 18 17 17 16 16 16
25 25 26 26 26 27 26 26 26 26 27 27 27 27 26 26 26 25 25 25 25 25 24 24 23 22 23 23 23 22 22 22 21 21 20 19 18 17 17 17 17 16 16 16
25 25 26 26 26 27 26 27 28 28 28 27 27 26 26 25 26 26 25 25 25 24 24 23 23 23 22 22 23 22 22 22 22 22 20 19 18 17 17 17 17 16 15 15
26 26 26 26 26 26 26 26 27 27 26 26 26 26 25 25 25 25 25 25 25 24 24 23 23 23 22 22 22 22 22 21 21 21 21 19 19 18 17 17 16 15 15 14
24 25 24 24 24 24 25 25 25 25 25 25 25 24 24 24 24 24 24 24 24 24 24 24 23 23 23 23 22 22 22 22 21 21 21 21 20 19 18 17 16 16 15 14
24 24 24 24 24 24 24 24 25 25 25 25 24 24 23 22 23 24 24 24 23 24 24 24 24 24 24 24 23 22 21 21 21 21 21 21 20 19 18 18 17 16 16 15
23 23 23 23 22 22 23 23 23 23 23 23 24 24 23 22 22 23 23 24 23 23 24 24 24 25 24 24 23 23 21 21 21 20 20 20 20 19 18 18 18 17 16 16
23 23 22 22 21 21 22 22 23 23 23 23 23 23 23 23 23 23 23 24 24 25 25 24 24 24 24 23 23 22 21 20 20 21 21 20 20 19 19 18 17 17 17 16
23 23 23 23 22 22 23 22 22 22 22 22 22 22 23 23 23 23 22 23 23 23 23 23 22 23 23 23 22 22 22 21 21 21 20 20 20 19 18 18 17 17 17 17
22 22 22 23 23 22 22 22 22 22 21 21 21 22 22 22 23 23 22 22 22 23 22 22 22 22 22 22 22 22 22 22 21 21 20 20 20 19 18 18 18 17 17 17
21 21 21 21 21 21 21 21 21 22 22 21 21 21 21 21 22 22 22 21 21 21 22 23 22 22 21 21 21 21 21 21 21 21 20 20 19 19 19 19 18 18 18 17
20 21 21 20 20 21 21 21 20 20 21 21 21 21 21 21 20 20 20 20 20 21 21 22 22 22 22 22 21 21 21 22 22 21 20 20 19 19 18 18 17 17 16 16
20 20 20 20 20 20 21 20 20 20 20 20 20 19 19 19 19 19 19 19 19 19 20 21 21 21 21 21 22 22 21 22 22 21 20 20 19 19 19 18 18 17 16 16

GEFSNGP_500_meanwind_246.txt.gz
Wind_Speed
21 21 22 22 22 22 23 22 21 20 20 19 19 19 18 18 17 17 17 17 16 16 16 16 15 15 14 14 14 14 13 13 14 14 14 14 14 15 15 15 16 16 16 17
21 21 22 23 22 23 23 22 22 22 22 21 20 20 19 18 18 18 17 17 16 16 16 16 16 15 15 14 13 13 13 13 13 13 14 15 14 15 15 15 16 16 16 16
23 23 23 24 23 23 23 23 23 23 21 21 20 20 20 19 19 18 17 16 16 16 16 16 15 15 14 13 12 12 13 13 13 13 14 15 15 15 15 15 15 16 17 16
25 24 25 24 24 24 24 24 23 23 22 22 21 21 21 20 19 18 18 17 17 17 17 16 16 15 14 13 13 14 14 13 13 14 14 15 15 15 15 15 15 16 17 17
26 26 27 26 25 24 23 23 23 23 22 23 22 21 22 21 20 19 19 18 18 17 17 16 16 15 15 15 15 15 15 15 15 14 15 15 14 15 16 16 16 16 16 17
27 27 27 26 26 26 25 24 23 23 23 23 23 23 23 23 22 20 20 20 19 18 18 18 17 17 17 16 16 16 16 16 16 16 15 15 15 15 15 16 16 16 16 17
27 27 27 26 26 26 26 24 24 24 24 23 24 24 24 24 23 23 22 22 20 19 19 20 19 19 19 19 18 17 16 17 17 16 16 15 15 15 15 15 15 16 16 16
27 27 26 25 25 25 25 24 24 24 24 25 25 25 24 25 25 25 24 24 23 22 21 21 21 21 20 21 19 18 17 17 16 17 17 16 16 16 15 15 15 15 15 15
27 27 26 25 24 25 25 24 24 25 26 26 26 26 26 26 26 25 25 25 24 23 23 23 23 22 22 22 22 19 17 17 16 17 16 16 17 16 15 15 15 15 15 15
28 28 28 27 26 26 26 26 26 26 27 27 26 26 26 26 26 26 26 25 25 24 24 24 24 24 24 23 22 21 19 18 18 18 17 17 17 16 16 15 15 15 15 15
29 29 28 28 27 27 27 27 27 27 27 27 27 26 26 27 27 27 26 26 25 25 25 25 25 25 25 24 23 22 20 19 19 19 17 17 17 16 16 15 16 16 15 15
28 28 28 27 27 27 27 27 27 27 26 26 25 25 24 24 24 25 25 24 24 24 24 24 24 25 25 25 24 22 21 20 19 19 18 17 17 17 17 16 16 16 16 16
28 28 28 27 27 27 26 26 27 27 27 26 26 25 24 24 24 24 24 24 24 24 25 24 24 24 25 25 23 22 22 20 19 18 18 18 18 17 17 17 16 16 16 16
28 27 27 27 27 27 27 26 26 27 27 26 26 25 24 24 24 24 24 24 24 24 25 24 24 24 23 23 22 22 21 20 20 20 19 18 18 18 18 17 17 16 16 16
27 27 27 27 27 27 26 26 26 26 26 25 26 25 25 24 24 24 24 24 23 24 24 24 24 23 21 20 20 20 20 20 20 20 20 19 19 19 19 18 17 17 16 16
27 27 27 27 27 27 26 26 26 26 26 25 25 25 25 26 25 25 25 24 24 23 23 23 23 22 20 20 20 20 20 20 20 21 21 20 20 19 19 19 18 17 17 16
27 27 27 27 27 27 27 27 27 26 26 26 26 26 26 25 25 24 24 24 24 23 22 22 22 22 22 22 22 21 22 22 21 21 21 21 20 20 20 20 19 19 18 17
27 27 26 26 26 27 28 28 27 27 26 26 26 26 26 26 25 25 24 24 23 23 22 23 22 22 22 23 23 23 23 22 21 21 20 20 20 21 20 20 19 19 19 18
27 26 26 27 28 28 28 28 28 28 27 26 26 25 25 25 24 24 24 24 23 23 23 23 23 23 22 22 23 23 23 22 22 21 21 20 20 20 20 20 20 20 19 19
25 25 26 26 27 27 27 27 27 27 27 27 27 26 25 25 25 24 24 23 23 23 23 23 23 23 23 22 23 23 23 23 22 22 21 21 20 20 20 20 20 20 20 19
24 25 25 25 25 25 26 26 27 27 27 27 27 26 26 25 25 24 24 23 23 23 23 23 23 22 23 23 23 23 23 23 22 22 22 22 22 21 20 20 19 19 19 18
23 24 24 24 25 25 25 25 25 25 25 26 26 26 26 25 25 24 25 24 23 23 23 23 23 23 23 23 23 23 24 23 22 21 21 21 21 20 19 19 18 18 17 16
21 22 23 24 24 24 24 24 25 25 25 25 25 25 25 25 24 24 24 24 24 24 24 24 24 24 23 23 23 22 22 22 21 20 20 20 20 19 18 18 18 18 17 17
20 21 21 22 22 23 23 22 23 23 24 24 24 25 25 25 25 25 26 26 26 25 25 25 25 24 23 22 22 22 21 21 21 20 20 20 20 19 19 19 19 19 18 18
20 20 20 19 19 19 20 20 21 22 23 23 24 24 25 25 25 25 25 25 25 25 24 24 24 24 23 23 23 23 23 23 23 22 22 21 20 20 19 19 19 19 19 19
18 18 17 17 17 18 17 18 19 20 21 21 22 23 23 24 24 24 24 24 24 24 24 24 24 24 24 24 24 24 24 24 24 23 23 22 22 22 21 21 20 19 18 18
17 17 18 17 16 16 16 17 18 18 19 19 20 21 22 22 22 22 23 23 23 23 23 23 22 23 24 24 24 24 24 24 24 24 23 23 23 22 21 21 20 19 18 18

GEFSNGP_500_meanwind_252.txt.gz
Wind_Speed
22 22 22 22 22 22 22 22 22 22 22 21 21 20 19 19 18 17 16 16 16 16 16 17 17 17 17 16 15 15 15 15 15 16 14 14 15 16 16 16 17 17 17 17
23 23 23 23 23 22 22 23 23 23 23 22 22 21 21 21 20 19 18 17 17 17 17 17 17 17 16 15 14 15 15 15 16 16 15 16 15 16 16 16 17 17 17 17
24 24 24 25 24 23 23 22 22 22 22 22 22 22 21 21 20 20 19 19 19 18 18 18 17 17 16 15 15 15 15 15 15 16 16 16 16 16 16 17 16 16 16 16
25 24 26 25 23 23 23 23 23 23 22 22 22 22 22 22 22 21 21 21 20 20 19 18 17 17 16 15 15 15 16 16 17 17 17 17 18 17 17 17 16 16 15 15
25 25 25 25 23 23 24 24 23 23 23 22 22 23 23 23 23 23 22 22 22 21 20 19 18 17 17 17 17 17 17 17 17 17 17 18 18 18 18 17 17 16 15 15
24 24 25 25 24 22 23 24 23 23 23 24 23 24 25 25 24 24 23 23 22 22 21 21 20 20 20 19 19 18 18 17 17 18 18 18 19 19 18 17 17 16 15 14
24 25 27 26 24 23 23 24 23 23 23 23 24 24 24 24 24 24 24 23 23 23 22 21 21 20 20 19 19 20 19 19 18 18 19 19 19 18 18 18 17 16 15 14
25 25 27 25 25 25 24 24 23 23 23 23 24 24 24 24 24 24 24 23 23 23 23 23 22 21 20 20 20 20 20 20 20 19 19 20 19 19 18 18 17 16 15 14
26 26 25 24 24 24 24 24 24 22 22 23 24 24 24 24 24 24 24 24 24 24 24 24 23 22 22 22 22 22 21 21 21 21 20 20 19 19 19 18 17 17 16 14
25 25 25 24 24 24 24 23 22 22 22 23 24 23 23 23 24 24 25 24 25 25 25 25 24 24 25 24 23 23 23 23 23 23 22 21 21 20 20 19 17 16 15 14
24 24 25 24 24 24 24 24 24 23 23 22 23 23 24 24 24 24 24 24 25 25 24 24 25 25 25 24 23 23 23 23 24 24 23 22 21 20 20 18 17 16 16 16
25 24 24 24 25 25 24 24 24 24 23 23 23 24 24 25 25 25 24 25 25 25 24 24 24 24 24 24 23 23 23 23 23 23 22 21 21 20 20 19 18 18 17 17
25 25 25 24 25 26 25 25 25 25 25 24 24 24 23 24 24 24 24 23 23 23 24 24 23 23 24 24 24 23 23 23 23 22 21 20 20 21 20 19 19 18 18 18
25 25 25 25 26 26 26 26 26 26 25 25 24 24 24 24 24 24 24 24 24 23 23 23 24 24 24 25 24 24 23 23 22 21 20 20 20 20 20 19 19 18 18 18
25 25 26 26 26 26 26 26 26 25 25 26 26 25 25 25 25 24 24 24 24 24 24 23 23 24 24 24 24 24 23 22 22 22 22 21 20 20 19 19 18 18 18 17
24 25 25 25 26 26 26 26 26 26 26 27 27 27 26 26 25 25 25 25 25 25 25 24 24 24 24 24 24 24 23 23 23 23 22 22 21 21 21 20 19 19 19 18
24 24 25 25 26 26 26 26 26 26 26 27 27 27 27 26 25 24 24 24 24 24 24 24 24 23 23 22 23 23 23 23 22 22 22 22 22 22 21 20 19 20 20 20
24 25 25 25 25 25 26 26 27 27 27 27 28 28 27 26 25 24 25 24 24 24 24 24 23 22 22 22 22 22 22 23 22 22 22 22 22 22 22 21 20 20 21 21
23 24 24 24 25 25 26 26 27 28 27 28 27 27 27 27 26 25 24 25 24 23 23 23 23 22 22 22 23 22 22 22 22 22 22 22 22 22 22 22 21 21 21 21
21 22 22 23 24 25 25 26 26 27 27 26 27 27 27 27 27 26 25 24 24 23 23 23 22 22 22 23 22 22 22 22 22 22 22 21 22 22 22 22 22 21 20 19
19 20 21 22 22 23 24 24 24 24 24 25 25 26 26 26 26 26 25 25 25 25 24 24 24 23 22 22 22 22 22 22 22 22 23 22 22 21 22 22 22 21 20 19
19 19 20 21 22 22 23 23 23 23 23 23 24 24 24 24 24 25 25 26 26 26 25 25 24 23 23 22 21 21 21 22 23 23 23 23 22 21 21 21 21 21 20 20
19 19 20 20 21 21 21 21 21 21 21 22 22 22 23 23 23 24 24 25 25 26 26 25 24 24 23 23 23 23 23 23 23 23 23 24 23 22 21 20 20 20 20 20
17 18 18 19 19 19 19 18 18 19 19 20 20 21 21 21 22 22 23 23 24 24 24 25 24 23 24 24 24 24 24 23 23 23 23 23 24 24 23 21 20 19 20 20
17 17 17 17 17 17 18 17 17 17 17 18 18 19 20 20 21 21 21 22 23 23 23 24 24 24 24 24 24 24 24 24 24 23 23 23 23 22 22 21 20 19 19 19
15 15 15 15 16 16 17 16 17 17 17 17 18 18 18 19 20 21 21 21 21 22 22 23 24 24 23 24 24 24 24 24 24 23 23 22 22 22 21 21 20 20 19 19
14 14 14 14 15 16 16 16 16 16 17 17 18 18 18 19 19 20 20 21 21 21 22 23 23 23 23 23 23 23 23 22 22 22 21 20 20 20 20 21 21 21 20 19

GEFSNGP_500_meanwind_258.txt.gz
Wind_Speed
22 21 21 23 24 25 24 25 25 22 23 25 25 24 24 24 24 23 22 21 19 18 18 18 18 18 18 18 19 19 19 19 18 19 19 19 19 20 20 21 20 20 19 19
23 22 22 23 24 26 24 24 24 24 24 24 25 26 25 25 25 24 22 22 21 20 20 20 19 19 20 20 20 20 20 20 19 19 19 19 19 20 21 20 20 19 19 18
24 23 23 25 24 24 24 25 26 26 25 24 25 25 25 25 25 25 23 22 22 22 22 21 21 20 21 20 20 20 20 20 19 20 19 19 19 20 20 20 19 19 19 18
25 23 24 24 25 24 25 25 25 25 26 25 26 26 26 26 25 25 25 24 23 23 23 23 23 22 21 21 20 20 21 20 20 20 20 19 19 20 20 20 20 20 19 18
24 23 25 25 26 26 26 27 27 27 27 27 26 26 25 25 26 25 25 24 24 24 24 23 23 22 22 21 21 21 22 21 21 21 20 20 20 20 20 20 20 19 19 18
25 25 25 26 26 25 25 28 28 27 27 27 27 27 25 26 26 25 25 24 24 24 23 23 22 22 22 22 22 22 22 21 21 21 22 21 21 21 20 20 19 19 19 18
26 27 26 27 27 26 27 28 29 28 27 27 27 27 26 26 26 26 25 25 25 25 24 24 23 23 23 22 22 22 22 22 21 21 21 21 21 21 21 20 20 19 19 18
26 26 26 26 27 27 28 28 27 27 27 27 27 27 27 26 27 27 26 26 25 25 25 24 23 23 23 23 23 23 22 21 21 21 21 21 21 21 22 21 21 21 20 19
25 26 26 26 27 27 26 27 27 26 26 26 27 27 27 27 27 27 27 26 25 25 25 24 23 23 24 24 24 23 23 22 22 21 22 22 22 22 22 21 21 22 21 20
26 26 25 25 26 26 25 26 26 27 26 27 28 28 27 27 27 27 27 26 25 25 24 24 23 24 24 25 25 25 24 23 23 23 22 23 23 23 22 23 22 21 19 19
26 26 26 25 25 25 25 25 25 25 26 27 27 27 27 26 26 25 25 25 25 25 25 25 25 25 25 25 26 26 25 24 24 23 23 23 23 23 23 22 21 21 19 19
26 26 26 25 25 25 26 26 26 27 27 26 26 25 26 25 24 24 25 25 25 25 25 25 24 24 25 25 25 25 25 25 24 23 23 23 22 22 22 22 21 20 20 19
26 26 25 25 26 26 26 26 27 28 27 26 26 25 24 23 24 25 25 25 25 25 25 25 24 25 25 25 24 24 24 24 23 23 23 23 22 21 20 21 21 20 20 20
26 26 26 25 25 25 25 26 26 27 28 28 26 26 24 24 24 25 25 25 25 25 25 25 24 24 24 24 24 24 24 24 24 24 23 22 22 21 20 20 20 19 19 19
26 26 27 26 26 26 27 27 27 28 27 27 26 26 26 25 25 24 24 24 25 25 25 25 24 24 24 25 25 25 24 24 24 24 23 23 22 21 21 21 21 20 20 19
25 26 27 27 28 28 28 28 28 28 28 27 27 26 26 26 25 25 25 25 25 26 25 25 25 25 24 25 25 24 24 24 24 23 23 23 22 22 21 21 21 21 20 20
24 24 25 27 27 28 27 27 27 28 28 27 26 26 26 26 27 27 27 26 27 27 26 25 25 25 25 24 24 24 23 23 23 23 22 22 23 22 22 22 22 21 21 21
22 23 24 25 26 27 27 27 27 27 27 27 27 27 27 26 26 27 27 27 27 26 26 26 25 25 25 25 24 24 23 22 22 22 22 22 22 22 22 22 23 22 22 21
21 22 23 24 25 26 26 26 26 26 27 26 26 26 27 27 27 27 26 27 27 27 26 26 26 25 25 25 25 24 24 23 22 22 21 21 22 22 22 21 21 22 21 21
21 21 22 22 22 23 24 24 24 24 24 25 25 25 26 26 26 26 26 26 26 25 26 26 26 25 25 25 25 25 24 24 22 21 21 22 22 22 23 22 21 21 21 20
22 21 21 21 21 21 22 22 23 23 23 24 24 24 24 25 25 25 25 26 26 25 25 26 26 25 24 24 25 25 24 24 22 21 21 22 22 23 23 22 23 22 22 21
21 21 21 21 21 22 22 22 23 23 23 23 23 23 23 23 23 23 24 25 25 25 25 25 25 25 24 24 24 23 23 23 23 22 22 22 22 21 22 22 21 21 21 21
21 21 21 21 21 22 22 23 23 23 23 22 22 22 22 22 22 22 22 23 23 23 24 24 24 23 23 24 24 23 23 22 22 21 22 22 22 22 21 21 21 20 20 20
20 20 20 20 21 21 21 21 22 22 22 22 22 22 22 22 22 22 22 22 22 22 23 23 23 23 23 23 23 23 22 22 22 22 22 21 21 21 21 21 20 20 20 20
19 19 19 19 19 20 20 20 21 22 22 22 23 23 22 22 21 20 20 20 20 21 21 22 22 23 23 23 23 23 22 22 22 22 22 21 20 20 20 20 20 20 20 20
17 17 18 18 18 18 18 18 18 19 20 20 20 20 20 19 19 19 18 19 19 20 21 21 22 23 23 23 23 24 23 22 22 21 21 20 20 20 20 20 21 21 21 20
15 15 16 16 17 16 16 16 17 18 18 18 18 18 18 18 18 18 18 19 19 20 20 21 21 22 22 22 23 23 23 23 22 22 21 21 20 21 21 21 21 21 21 21

GEFSNGP_500_meanwind_264.txt.gz
Wind_Speed
22 21 22 24 25 25 25 25 25 24 23 23 21 22 22 23 22 21 20 19 19 19 18 19 20 19 19 16 16 16 16 16 16 17 16 16 17 18 18 18 19 19 19 18
24 24 24 25 25 25 25 24 25 25 24 22 22 22 23 22 22 21 20 19 19 18 19 19 20 20 19 18 17 17 17 18 18 18 17 17 18 18 18 19 19 19 18 18
25 25 25 25 24 24 23 23 24 24 24 22 22 22 22 22 22 21 21 20 19 19 19 19 19 20 19 19 19 19 20 19 19 18 18 19 19 19 19 19 19 19 19 18
26 25 26 24 24 25 25 25 25 25 24 23 23 23 24 24 23 23 21 20 20 19 19 19 19 20 19 20 20 20 19 19 19 19 19 19 19 19 20 20 19 19 19 19
26 26 25 26 25 25 24 25 25 25 25 24 24 24 25 23 23 23 23 22 21 19 20 21 21 21 21 21 20 20 20 20 20 20 19 19 19 20 20 20 20 19 19 19
26 26 25 25 26 26 27 27 26 25 25 24 23 24 23 23 22 22 21 21 21 20 21 21 22 21 21 21 21 21 21 20 20 20 20 20 20 20 20 20 20 19 19 18
26 26 25 25 25 25 26 26 25 24 24 23 23 23 22 22 22 22 22 22 21 22 22 22 21 21 21 22 22 22 21 21 20 21 21 20 20 19 20 19 19 19 18 18
24 24 24 24 25 25 25 23 23 23 23 24 24 23 23 23 23 23 23 24 24 24 23 23 22 22 22 22 22 22 22 22 21 21 21 21 20 20 19 19 19 19 18 18
23 23 23 23 25 25 24 23 23 24 24 24 25 25 24 23 23 24 25 25 24 25 25 24 24 23 23 23 22 22 22 22 21 22 21 21 21 21 20 20 20 20 19 18
24 24 22 23 24 24 24 23 24 24 25 24 24 24 24 24 24 25 26 27 26 25 25 25 24 24 23 24 24 23 23 23 22 21 21 21 21 21 20 20 20 20 19 18
24 25 25 24 24 23 23 24 24 23 24 24 24 24 24 24 24 25 25 25 25 25 25 25 24 24 24 24 23 23 23 23 22 22 22 21 22 21 21 21 21 20 19 19
23 24 24 23 24 23 23 23 23 23 23 24 24 24 24 24 25 25 25 24 24 24 24 24 23 23 23 22 23 23 22 22 22 22 22 23 22 21 20 20 20 19 19 19
21 21 22 23 23 24 24 23 24 24 23 23 23 23 23 23 24 25 25 24 23 23 23 23 23 23 23 23 22 23 23 23 23 23 23 23 23 22 21 20 20 20 19 19
22 22 22 23 23 23 24 24 24 25 25 25 25 24 23 24 24 24 24 23 23 23 22 23 23 23 23 23 23 23 23 23 23 23 22 22 22 22 22 21 20 19 19 18
22 22 22 23 24 24 24 24 24 24 24 24 25 25 24 24 24 24 23 23 23 23 23 23 23 24 24 23 24 24 23 23 22 22 22 22 22 21 21 20 20 19 19 18
21 21 21 22 23 24 24 24 24 24 23 23 24 24 24 24 24 24 24 24 23 23 23 23 24 23 23 23 23 22 23 23 22 22 22 22 21 21 21 20 20 20 19 19
20 19 21 22 24 24 23 22 22 23 23 23 23 23 23 23 24 23 22 23 23 23 24 24 24 25 25 24 23 23 23 22 22 21 21 20 20 20 20 20 20 20 21 21
19 19 19 20 21 21 21 21 21 21 22 23 23 23 22 22 22 22 23 23 23 23 24 24 24 24 24 25 24 24 23 22 21 20 20 20 20 20 20 20 21 21 21 22
18 18 19 20 20 20 20 20 21 21 21 22 22 23 22 22 22 22 21 22 23 23 24 23 24 23 23 23 23 23 22 22 21 21 21 21 21 20 19 19 20 20 21 21
18 19 19 19 19 20 20 21 21 21 21 21 21 21 22 22 22 23 22 22 22 22 23 23 23 22 23 23 23 23 23 22 22 22 22 21 20 21 20 19 19 20 20 20
18 18 19 19 19 20 20 22 22 22 22 22 22 22 22 22 22 23 23 23 22 22 22 22 23 23 23 23 23 23 23 22 22 22 21 20 20 20 20 19 19 19 19 20
19 19 20 20 20 20 21 21 22 22 21 21 22 22 22 22 22 22 22 23 23 23 23 23 23 23 24 24 23 23 23 22 22 22 21 20 20 20 20 20 19 19 19 20
19 19 18 19 19 20 20 20 21 20 20 20 20 21 21 22 22 22 22 22 23 23 23 23 23 23 23 23 24 24 24 23 23 22 22 21 21 20 20 20 19 19 19 20
17 18 18 18 18 18 18 19 19 19 19 20 20 20 21 21 21 21 21 22 22 22 22 22 22 22 22 23 23 23 23 23 22 22 22 21 21 20 19 19 19 19 18 18
18 18 18 18 18 18 18 18 18 18 19 19 19 19 20 20 20 20 20 20 20 20 21 22 22 22 22 22 22 22 21 21 21 22 21 21 20 20 20 19 19 19 19 19
17 17 17 17 17 17 17 17 16 17 18 18 19 19 19 19 19 19 19 19 19 20 20 21 21 21 21 21 21 21 21 21 21 21 21 21 21 21 21 21 20 20 20 19
16 16 16 16 16 16 16 16 16 16 17 17 18 18 18 18 18 18 19 19 19 19 19 20 20 20 20 20 20 20 20 21 21 21 22 22 22 22 21 21 21 20 20 19

GEFSNGP_500_meanwind_270.txt.gz
Wind_Speed
24 24 24 24 24 24 24 24 24 24 23 21 21 21 20 20 21 21 21 21 21 21 22 21 21 21 20 21 20 20 20 20 19 19 19 19 19 19 19 19 19 19 19 19
25 24 25 25 24 25 24 24 23 24 23 21 20 21 21 20 20 21 21 21 21 22 22 22 21 21 21 21 21 20 20 20 20 21 21 21 21 21 20 19 19 20 20 20
25 24 25 25 24 24 24 23 23 23 22 22 21 22 21 21 21 22 23 23 21 21 21 22 22 21 20 21 21 20 20 21 21 21 21 21 20 20 20 20 20 20 20 20
25 24 25 25 23 24 24 23 23 23 24 23 23 22 21 22 22 23 23 22 22 21 21 22 22 22 21 21 22 21 21 21 21 21 21 21 21 21 21 21 21 21 21 21
24 25 25 25 23 23 24 24 23 23 23 23 23 22 22 22 23 22 22 21 21 21 21 21 22 23 23 23 22 22 21 21 21 21 21 21 22 22 22 22 22 22 21 21
24 24 25 24 24 23 24 25 25 24 23 22 22 22 22 22 22 22 22 22 21 20 20 21 22 23 23 23 23 23 23 22 21 22 22 22 22 23 23 23 22 22 22 21
25 25 25 24 24 24 24 24 24 24 23 24 24 24 23 23 23 23 22 22 22 21 21 22 22 22 23 24 24 23 23 22 22 22 22 22 22 23 23 22 22 22 23 22
25 26 25 24 24 24 24 24 24 24 24 24 24 25 25 24 23 23 23 23 23 23 22 22 23 24 24 24 24 24 23 23 22 21 21 22 22 22 22 22 22 22 21 21
25 25 26 25 25 25 24 24 24 24 25 24 24 24 25 24 23 23 23 23 23 23 24 24 23 24 25 25 24 23 24 23 23 22 22 22 21 22 22 22 21 21 21 21
24 24 23 24 25 24 24 24 25 25 25 25 24 24 25 25 25 24 24 25 25 24 24 24 23 24 25 25 24 24 24 23 22 22 22 22 22 22 22 22 22 21 21 21
24 24 24 24 24 24 24 23 24 26 26 25 25 25 25 25 25 26 25 25 24 24 24 23 23 23 22 22 22 22 23 22 22 22 22 23 23 23 22 22 23 22 21 20
23 24 24 25 25 24 24 24 24 25 25 26 25 26 26 26 26 25 25 24 23 23 23 23 23 24 23 22 22 22 22 21 21 22 23 23 24 24 23 23 23 23 23 22
22 23 24 25 25 24 24 24 24 25 25 26 26 24 24 24 24 24 23 23 23 23 23 23 24 24 23 23 23 22 21 22 22 23 23 23 23 23 23 23 23 22 23 23
22 23 24 24 25 24 23 23 23 24 24 25 25 24 24 24 23 23 23 22 22 23 22 22 22 22 22 23 23 22 23 23 23 24 24 24 24 24 24 23 23 23 23 23
21 21 22 22 23 23 22 22 22 22 23 24 24 24 23 22 22 22 22 22 22 22 22 22 21 22 22 23 23 23 24 24 24 24 24 24 24 24 23 23 22 22 23 23
20 20 21 21 22 22 22 22 21 21 22 23 23 24 24 23 22 22 22 22 22 22 23 23 23 23 23 24 24 24 24 25 25 24 23 23 23 23 23 23 23 22 22 22
19 19 20 21 21 22 22 21 22 22 22 22 22 23 23 23 22 22 22 23 23 24 24 24 24 24 25 25 25 26 26 26 26 25 24 23 23 22 22 21 21 21 21 21
19 19 20 20 21 21 20 20 20 20 20 20 21 22 22 23 23 23 23 23 24 25 25 25 25 25 25 25 26 26 26 26 26 26 26 24 24 23 22 22 22 22 22 22
19 18 19 19 19 20 20 20 20 21 21 21 21 21 22 23 23 23 24 24 24 24 25 25 25 25 25 25 25 25 25 25 25 25 25 24 24 24 23 23 23 22 22 21
19 19 19 18 19 19 19 20 21 22 23 23 22 22 23 23 23 23 23 23 24 24 24 25 25 25 25 25 25 24 24 24 24 24 24 24 24 24 23 23 23 22 22 21
19 19 19 19 19 20 20 21 21 22 23 23 23 23 23 23 23 23 23 22 22 23 24 24 25 25 25 26 25 25 24 24 24 24 24 24 23 23 23 22 22 21 21 21
18 18 18 19 20 20 21 21 22 22 22 23 22 22 22 22 22 22 22 23 23 23 23 23 24 25 26 26 26 25 25 24 24 24 24 24 23 23 22 22 21 20 20 21
18 18 19 19 20 20 21 21 21 22 22 22 22 22 21 21 21 21 21 21 22 22 23 23 24 24 25 25 25 25 25 25 25 25 24 23 23 22 21 21 21 21 21 21
17 17 17 18 19 20 20 20 20 21 21 22 22 22 21 21 21 21 21 22 22 22 23 23 24 24 23 23 23 23 23 24 24 24 23 23 22 22 21 21 21 21 21 21
16 16 17 17 18 19 19 19 19 19 20 20 21 21 21 21 21 21 22 22 21 22 22 22 22 22 22 22 22 22 22 22 22 23 22 22 22 22 22 22 21 21 20 20
14 15 15 15 15 16 16 17 18 18 19 19 19 19 19 19 19 20 20 20 20 21 21 21 21 21 21 21 21 22 22 22 22 22 22 22 22 22 22 22 22 22 22 21
14 14 14 14 15 15 15 16 16 17 18 18 18 17 17 18 18 18 18 19 19 19 20 20 20 21 21 22 22 22 23 22 21 21 22 22 23 23 23 22 23 23 22 22